This is the latest recevied weather packets stored in our database for station/object VE6CWS-7. If no packets are shown the sender has not sent any weather packets the latest 10 day(s).
| Time | Temp. | Humidity | Pressure | Rain* | Wind** | Luminosity | Snow |
|---|---|---|---|---|---|---|---|
| 1777798907 | 6.11° C | 79% | 1009.9 hPa | 0 mm | - | - | - |
| 1777797951 | 6.11° C | 78% | 1010.1 hPa | 0 mm | - | - | - |
| 1777797048 | 6.67° C | 77% | 1010.2 hPa | 0 mm | - | - | - |
| 1777796155 | 6.67° C | 77% | 1010.5 hPa | 0 mm | - | - | - |
| 1777795302 | 7.22° C | 75% | 1010.7 hPa | 0 mm | - | - | - |
| 1777794349 | 7.22° C | 75% | 1010.6 hPa | 0 mm | - | - | - |
| 1777793444 | 7.22° C | 74% | 1010.8 hPa | 0 mm | - | - | - |
| 1777792541 | 7.22° C | 74% | 1011 hPa | 0 mm | - | - | - |
| 1777791697 | 7.22° C | 73% | 1011 hPa | 0 mm | - | - | - |
| 1777790747 | 7.78° C | 73% | 1011.2 hPa | 0 mm | - | - | - |
| 1777789849 | 8.33° C | 72% | 1011.3 hPa | 0 mm | - | - | - |
| 1777788934 | 8.33° C | 70% | 1011.4 hPa | 0 mm | - | - | - |
| 1777788091 | 8.89° C | 70% | 1011.3 hPa | 0 mm | - | - | - |
| 1777787160 | 8.89° C | 70% | 1011.3 hPa | 0 mm | - | - | - |
| 1777786245 | 9.44° C | 67% | 1011.4 hPa | 0 mm | - | - | - |
| 1777785344 | 8.89° C | 66% | 1011.4 hPa | 0 mm | - | - | - |
| 1777784503 | 9.44° C | 63% | 1011.5 hPa | 0 mm | - | - | - |
| 1777783541 | 10° C | 61% | 1011.5 hPa | 0 mm | - | - | - |
| 1777782642 | 10.56° C | 58% | 1011.5 hPa | 0 mm | - | - | - |
| 1777781742 | 11.11° C | 56% | 1011.4 hPa | 0 mm | - | - | - |
| 1777780899 | 12.22° C | 54% | 1011.4 hPa | 0 mm | - | - | - |
| 1777779936 | 12.78° C | 51% | 1011.5 hPa | 0 mm | - | - | - |
| 1777779038 | 13.89° C | 48% | 1011.4 hPa | 0 mm | - | - | - |
| 1777778138 | 14.44° C | 46% | 1011.3 hPa | 0 mm | - | - | - |
| 1777776347 | 16.11° C | 44% | 1011.4 hPa | 0 mm | - | - | - |
* Rain latest hour (hover to see other rain measurements)
** Current wind speed in m/s (hover to see current wind gust speed)